Terug naar catalogus

STARLINK-32355

ActiefCommunicatieVLEO
NORAD 61634·PAYLOAD·🇺🇸 United States

Gelanceerd Oct 23, 2024 vanaf Cape Canaveral Space Force Station

Loading…

Volgende Passages (komende 24 uur)

TLE

VersSource: CelesTrak SupGP

Epoch: Sep 15, 2026, 03:36 UTC

1 61634C 24191P   26258.15048611  .00034990  00000+0  12668-2 0  2583
2 61634  43.0002 168.3242 0001002 284.3638 238.6236 15.27575416    18

Volg STARLINK-32355 in realtime met AllMySat

Download on the App Store